This demonstration page uses our WeatherBlox Daily Observations layout. Learn more.

Left ArrowRight Arrow

39.01783, -85.05884

Hourly Observations for September 15, 2018

Temp ( °F °C ) Dew Point ( °F °C ) Humidity (%) Winds ( mph kmh ) Pressure ( in mb ) Visibility ( mi km ) Precip ( " mm )
12:52 am 00:52 Mostly Clear 76 24.4 68 20 77 77 NNE 9 15 30.05 1018 10 16 N/A
1:52 am 01:52 Mostly Clear 75 23.9 69 20.6 82 82 NNE 8 13 30.05 1018 10 16 N/A
2:52 am 02:52 Clear 72 22.2 68 20 87 87 NNW 6 9 30.05 1018 10 16 N/A
3:52 am 03:52 Clear 72 22.2 69 20.6 91 91 N 6 9 30.04 1017 9 14 N/A
4:52 am 04:52 Clear 72 22.2 69 20.6 91 91 NNE 6 9 30.04 1017 8 13 N/A
5:52 am 05:52 Mostly Clear with Mist and Fog 70 21.1 69 20.6 97 97 N 6 9 30.04 1017 6 10 N/A
6:52 am 06:52 Mostly Clear with Mist and Fog 71 21.7 69 20.6 94 94 NNE 6 9 30.05 1018 6 10 N/A
7:52 am 07:52 Partly Cloudy with Patchy Fog 70 21.1 69 20.6 97 97 N 5 7 30.06 1018 3 5 N/A
8:03 am 08:03 Partly Cloudy with Patchy Fog 71 21.7 70 21.1 96 96 N 5 7 30.06 1018 3 5 N/A
8:47 am 08:47 Mostly Cloudy with Patchy Fog 73 23 72 22 94 94 ENE 8 13 30.09 1019 4 6 N/A
8:52 am 08:52 Mostly Cloudy with Patchy Fog 73 22.8 71 21.7 94 94 ENE 8 13 30.08 1019 4 6 N/A
9:41 am 09:41 Mostly Cloudy with Mist and Fog 76 24.4 72 22.2 88 88 ENE 7 11 30.09 1019 6 10 N/A
9:52 am 09:52 Mostly Sunny 76 24.4 71 21.7 85 85 NE 7 11 30.09 1019 7 11 N/A
10:52 am 10:52 Mostly Sunny 79 26.1 72 22.2 79 79 NE 8 13 30.09 1019 10 16 N/A
11:52 am 11:52 Partly Cloudy 83 28.3 72 22.2 70 70 NNE 8 13 30.09 1019 10 16 N/A
12:52 pm 12:52 Partly Cloudy 85 29.4 71 21.7 63 63 NE 7 11 30.08 1019 10 16 N/A
1:52 pm 13:52 Partly Cloudy 85 29.4 71 21.7 63 63 NE 9 15 30.07 1018 10 16 N/A
2:52 pm 14:52 Mostly Cloudy 86 30 70 21.1 59 59 ENE 9 15 30.05 1018 10 16 N/A
3:52 pm 15:52 Partly Cloudy 88 31.1 70 21.1 55 55 NE 10 17 30.04 1017 10 16 N/A
4:52 pm 16:52 Partly Cloudy 88 31.1 69 20.6 54 54 NE 12 19 30.03 1017 10 16 N/A
5:52 pm 17:52 Partly Cloudy 87 30.6 68 20 53 53 E 9 15 30.02 1017 10 16 N/A
6:52 pm 18:52 Partly Cloudy 86 30 68 20 55 55 E 12 19 30.03 1017 10 16 N/A
7:52 pm 19:52 Mostly Clear 82 27.8 69 20.6 65 65 ESE 7 11 30.03 1017 10 16 N/A
8:52 pm 20:52 Mostly Clear 80 26.7 69 20.6 69 69 E 6 9 30.04 1017 10 16 N/A
9:52 pm 21:52 Clear 78 25.6 69 20.6 74 74 E 6 9 30.05 1018 10 16 N/A
10:52 pm 22:52 Clear 76 24.4 69 20.6 79 79 E 7 11 30.05 1018 10 16 N/A
11:52 pm 23:52 Mostly Clear 77 25 69 20.6 77 77 E 8 13 30.05 1018 10 16 N/A

Powered by AerisWeather